Home   Weather   Bryansk   Past weeks

Flag for Russia Past Weather in Bryansk, Russia — Yesterday and Last 2 Weeks

Now
21 °F

Scattered clouds.


Feels Like: 9 °F
Forecast: 21 / 34 °F
Wind: 13 mph from Southwest

Location: Brjansk

Current Time: Jan 19, 2017 at 4:09:04 pm

Latest Report: Jan 19, 2017 at 3:30 pm


Visibility: N/A

Pressure: 30.39 "Hg

Humidity: 80%

Dew Point: 16 °F

Location of BryanskLocation

Past Weather in Bryansk — Graph

°F

Bryansk Temperature Yesterday

Maximum temperature yesterday: 27 °F (at 2:00 pm)
Minimum temperature yesterday: 19 °F (at 5:00 pm)
Average temperature yesterday: 23 °F

High & Low Weather Summary for the Past Weeks

 TemperatureHumidityPressure
High34 °F (Jan 15, 6:00 am)100% (Jan 4, 4:30 pm)30.60 "Hg (Jan 4, 4:30 pm)
Low-9 °F (Jan 7, 8:00 am)69% (Jan 18, 5:00 am)29.27 "Hg (Jan 4, 4:30 pm)
Average19 °F89%30.02 "Hg
* Reported Jan 4 3:00 pm — Jan 19 3:00 pm, Bryansk, Weather by CustomWeather, © 2017

Note: Actual official high and low records may vary slightly from our data, if they occured in-between our weather recording intervals... More about our weather records

Advertising

Bryansk Weather History for the Previous 24 Hours

Scroll right to see more
 ConditionsComfort  
Time TempWeatherWind HumidityBarometerVisibility
3:00 pm
Thu, Jan 19
19 °FScattered clouds.13 mph86%30.42 "HgN/A
2:30 pm19 °FScattered clouds.13 mph86%30.42 "HgN/A
2:00 pm19 °FScattered clouds.15 mph86%30.42 "HgN/A
1:30 pm19 °FPartly sunny.15 mph86%30.42 "HgN/A
1:00 pm19 °FPartly sunny.15 mph93%30.45 "HgN/A
12:30 pm19 °FPartly sunny.13 mph86%30.45 "HgN/A
12:00 pm19 °FPartly sunny.13 mph93%30.48 "HgN/A
11:30 am19 °FPartly sunny.13 mph93%30.48 "HgN/A
11:00 am19 °FPartly sunny.10 mph93%30.48 "HgN/A
10:30 am19 °FOvercast.10 mph93%30.48 "Hg6 mi
10:00 am19 °FOvercast.8 mph93%30.51 "Hg6 mi
9:30 am19 °FOvercast.8 mph93%30.51 "Hg6 mi
9:00 am19 °FPartly sunny.8 mph93%30.48 "Hg6 mi
8:30 am19 °FOvercast.8 mph93%30.51 "Hg6 mi
8:00 am19 °FOvercast.8 mph93%30.51 "Hg4 mi
7:00 am19 °FOvercast.8 mph93%30.51 "Hg4 mi
6:00 am19 °FLow clouds.6 mph93%30.54 "Hg4 mi
6:00 pm
Wed, Jan 18
19 °FClear.3 mph100%30.60 "Hg10 mi
5:30 pm19 °FClear.3 mph93%30.60 "Hg10 mi
5:00 pm19 °FPassing clouds.3 mph93%30.57 "HgN/A
4:30 pm21 °FScattered clouds.3 mph86%30.57 "HgN/A
4:00 pm23 °FScattered clouds.3 mph80%30.57 "HgN/A
Weather by CustomWeather, © 2017

See weather overviewHow to use our weather pages